KMCI

Kansas City International Airport

Airport
ICAO code
KMCI
IATA Code
MCI
Summary
ICAO Region
NAM
ICAO Territory
Location

Kansas City, Missouri

Serving
Kansas City
Elevation
1026 ft
Coordinates
39° 17' 51" N , 94° 42' 50" W
KCC
Airport BS
Bird Strike
Airport LOS
Parallel Runway Operation
Metar
Observation
KMCI 061453Z 13018KT 10SM OVC230 10/02 A2982 RMK AO2 SLP097 T01000022 58037
Station
Kansas City, Kansas City International Airport
Date/Time
2023-02-06 14:53:00
Wind direction
130°
Wind speed
18 kts
Lowest cloud amount
overcast
Temperature
10°C
Dew point
2.2°C
Humidity
58%
Weather condition
n/a

International airport serving Kansas City, Missouri, USA.

Climatology

Humid “subtropical” climate (Köppen climate classification Cfa) - characterized by hot, humid summers and cool winters. Significant amounts of precipitation occur in all seasons in most areas. Winter rainfall (and sometimes snowfall) is associated with large storms that the westerlies steer from west to east. Most summer rainfall occurs during thunderstorms and occasional tropical storms (hurricanes).

Runways

Designator Length Width Surface Rops
01R/19L 2896 46 CON Yes/Yes
9/27 2896 46 ASP Yes/Yes
01L/19R 3292 46 CON Yes/Yes

Airport map

Aerial View

SKYbrary Partners:

Safety knowledge contributed by: